Location: Unspecified
(51.0000°N, 12.0000°E)
Time: 20:50:54
(UTC+01:00)

X-37B - Visible Passes

Search period start: 25 November 2020 00:00
Search period end: 05 December 2020 00:00
Orbit: 384 x 389 km, 45.0° (Epoch: 12 November)

Date Brightness Start Highest point End Pass type
(mag) Time Alt. Az. Time Alt. Az. Time Alt. Az.
28 Nov 3.1 18:11:31 10° S 18:12:32 12° SSE 18:12:32 12° SSE visible
29 Nov 3.2 18:47:58 10° SW 18:48:55 15° SSW 18:48:55 15° SSW visible
30 Nov 2.7 17:49:57 10° SSW 17:52:06 17° SSE 17:52:59 15° SE visible
01 Dec 3.2 16:52:23 10° S 16:53:47 12° SSE 16:55:11 10° SE visible
01 Dec 2.4 18:27:03 10° SW 18:29:18 24° S 18:29:18 24° S visible
02 Dec 2.5 17:28:50 10° SW 17:31:20 21° SSE 17:33:20 13° ESE visible
02 Dec 3.5 19:04:42 10° WSW 19:05:36 16° SW 19:05:36 16° SW visible
03 Dec 2.1 18:06:16 10° WSW 18:09:02 27° S 18:09:39 25° SSE visible
04 Dec 2.4 17:07:55 10° SW 17:10:37 25° S 17:13:18 10° ESE visible
04 Dec 2.8 18:44:05 10° WSW 18:46:00 22° SSW 18:46:00 22° SSW visible
